SCP
0 0 0 0 0 0 0 0 0 0 0 0 0 0 0 0 0 0 0 0 0 0 0 0 0 0 0 0 0 0 0 0 0 0 0 0 0 0 0 0 0 0 0
0 0 0 0 0 0 0 0 0 0 0 0 0 0 0 0 0 0 0 0 0 0 0 0 0 0 0 0 0 0 0 0 0 0 0 0 0 0 0 0 0 0 0
0 0 0 0 0 0 0 0 0 0 0 0 0 0 0 0 0 0 0 0 0 0 0 0 0 0 0 0 0 0 0 0 0 0 0 0 0 0 0 0 0 0 0
0 0 0 0 0 0 0 0 0 0 0 0 0 0 0 0 0 0 0 0 0 0 0 0 0 0 0 0 0 0 0 0 0 0 0 0 0 0 0 0 0 0 0
0 0 0 0 0 0 0 0 0 0 0 0 0 0 0 0 0 0 0 0 0 0 0 0 0 0 0 0 0 0 0 0 0 0 0 0 0 0 0 0 0 0 0
0 0 0 0 0 0 0 0 0 0 0 0 0 0 0 0 0 0 0 0 0 0 0 0 0 0 0 0 0 0 0 0 0 0 0 0 0 0 0 0 0 0 0
0 0 0 0 0 0 0 0 0 0 0 0 0 0 0 0 0 0 0 0 0 0 0 0 0 0 0 0 0 0 0 0 0 0 0 0 0 0 0 0 0 0 0
0 0 0 0 0 0 0 0 0 0 0 0 0 0 0 0 0 0 0 0 0 0 0 0 0 0 0 0 0 0 0 0 0 0 0 0 0 0 0 0 0 0 0
0 0 0 0 0 0 0 0 0 0 0 0 0 0 0 0 0 0 0 0 0 0 0 0 0 0 0 0 0 0 0 0 0 0 0 0 0 0 0 0 0 0 0
0 0 0 0 0 0 0 0 0 0 0 0 0 0 0 0 0 0 0 0 0 0 0 0 0 0 0 0 0 0 0 0 0 0 0 0 0 0 0 0 0 0 0
0 0 0 0 0 0 0 0 0 0 0 0 0 0 0 0 0 0 0 0 0 0 0 0 0 0 0 0 0 0 0 0 0 0 0 0 0 0 0 0 0 0 0
0 0 0 0 0 0 0 0 0 0 0 0 0 0 0 0 0 0 0 0 0 0 0 0 0 0 0 0 0 0 0 0 0 0 0 0 0 0 0 0 0 0 0
0 0 0 0 0 0 0 0 0 0 0 0 0 0 0 0 0 0 0 0 0 0 0 0 0 0 0 0 0 0 0 0 0 0 0 0 0 0 0 0 0 0 0
0 0 0 0 0 0 0 0 0 0 0 0 0 0 0 0 0 0 0 0 0 0 0 0 0 0 0 0 0 0 0 0 0 0 0 0 0 0 0 0 0 0 0
0 0 0 0 0 0 0 0 0 0 0 0 0 0 0 0 0 0 0 0 0 0 0 0 0 0 0 0 0 0 0 0 0 0 0 0 0 0 0 0 0 0 0
0 0 0 0 0 0 0 0 0 0 0 0 0 0 0 0 0 0 0 0 0 0 0 0 0 0 0 0 0 0 0 0 0 0 0 0 0 0 0 0 0 0 0
0 0 0 0 0 0 0 0 0 0 0 0 0 0 0 0 0 0 0 0 0 0 0 0 0 0 0 0 0 0 0 0 0 0 0 0 0 0 0 0 0 0 0
0 0 0 0 0 0 0 0 0 0 0 0 0 0 0 0 0 0 0 0 0 0 0 0 0 0 0 0 0 0 0 0 0 0 0 0 0 0 0 0 0 0 0
0 0 0 0 0 0 0 0 0 0 0 0 0 0 0 0 0 0 0 0 0 0 0 0 0 0 0 0 0 0 0 0 0 0 0 0 0 0 0 0 0 0 0
0 0 0 0 0 0 0 0 0 0 0 0 0 0 0 0 0 0 0 0 0 0 0 0 0 0 0 0 0 0 0 0 0 0 0 0 0 0 0 0 0 0 0
0 0 0 0 0 0 0 0 0 0 0 0 0 0 0 0 0 0 0 0 0 0 0 0 0 0 0 0 0 0 0 0 0 0 0 0 0 0 0 0 0 0 0
0 0 0 0 0 0 0 0 0 0 0 0 0 0 0 0 0 0 0 0 0 0 0 0 0 0 0 0 0 0 0 0 0 0 0 0 0 0 0 0 0 0 0
0 0 0 0 0 0 0 0 0 0 0 0 0 0 0 0 0 0 0 0 0 0 0 0 0 0 0 0 0 0 0 0 0 0 0 0 0 0 0 0 0 0 0
0 0 0 0 0 0 0 0 0 0 0 0 0 0 0 0 0 0 0 0 0 0 0 0 0 0 0 0 0 0 0 0 0 0 0 0 0 0 0 0 0 0 0
0 0 0 0 0 0 0 0 0 0 0 0 0 0 0 0 0 0 0 0 0 0 0 0 0 0 0 0 0 0 0 0 0 0 0 0 0 0 0 0 0 0 0
0 0 0 0 0 0 0 0 0 0 0 0 0 0 0 0 0 0 0 0 0 0 0 0 0 0 0 0 0 0 0 0 0 0 0 0 0 0 0 0 0 0 0
Wind_Speed_500mb
45 46 40 35 33 31 27 25 27 29 30 30 33 37 37 37 35 34 34 32 29 26 26 26 33 36 35 34 36 36 39 37 38 38 38 34 37 32 27 21 22 16 16
42 51 44 38 34 30 27 26 27 27 27 27 27 24 24 23 20 16 14 12 10 14 20 27 28 32 32 31 35 38 36 35 36 32 34 15 11 12 6 11 13 14 19
50 51 50 40 33 29 25 23 21 20 19 17 15 14 12 7 2 2 5 12 16 15 21 22 26 28 32 39 42 36 33 30 29 27 18 11 6 7 9 12 14 17 18
52 53 50 42 34 27 21 18 16 12 9 6 5 4 2 3 5 10 14 17 18 20 25 35 38 38 31 23 21 20 19 19 19 21 19 20 27 10 7 14 15 15 20
47 54 47 40 32 23 18 14 9 5 5 4 5 6 6 6 11 15 18 22 25 27 30 31 26 23 20 18 17 17 17 18 20 19 20 22 26 27 23 17 23 20 21
31 46 43 34 24 19 15 9 8 8 7 5 3 2 5 9 12 16 19 20 22 24 24 23 21 20 18 18 17 17 17 19 20 22 21 19 19 21 21 26 28 20 18
32 38 35 30 25 19 14 13 12 9 7 5 3 3 6 8 12 16 19 21 21 21 21 20 20 19 18 18 16 16 17 19 21 22 21 19 18 17 17 15 16 15 15
30 30 28 25 21 20 20 19 15 11 8 6 6 7 10 12 15 19 21 21 22 22 22 22 21 19 17 16 17 19 20 20 20 19 18 17 15 13 12 10 10 12 12
27 25 19 18 20 23 24 18 13 7 5 7 10 12 15 17 19 21 23 24 24 24 24 23 21 19 18 18 19 19 19 18 17 16 15 15 14 15 15 15 14 14 9
22 22 14 15 21 23 16 12 9 6 9 13 16 19 21 23 24 24 25 26 27 26 25 24 22 20 20 20 19 17 16 15 14 14 14 15 16 17 19 20 20 17 15
20 17 14 15 17 18 15 13 13 14 20 23 22 24 26 27 28 28 29 28 28 27 26 24 23 22 21 20 18 16 14 13 12 10 11 13 14 16 18 21 23 22 20
19 14 11 11 11 12 14 17 21 24 26 28 28 29 30 30 30 30 30 30 28 27 26 24 23 22 21 18 16 13 11 11 10 11 13 14 15 16 18 20 21 23 25
9 8 11 11 14 17 21 25 30 33 35 34 34 34 34 33 34 32 31 29 28 27 26 25 24 22 19 16 13 10 10 11 13 14 14 16 18 19 20 22 23 24 27
14 18 19 18 18 20 23 27 31 35 36 36 37 40 39 37 35 34 31 29 28 27 25 22 19 17 15 13 9 10 11 13 11 11 12 14 17 19 21 23 25 27 29
13 19 20 23 22 21 22 24 25 28 32 37 41 43 42 39 37 35 32 29 26 23 21 19 18 15 12 9 7 13 11 10 11 10 11 13 15 21 25 26 28 31 35
33 24 25 25 23 22 20 17 17 21 27 34 40 42 43 40 37 34 31 28 26 25 23 20 16 12 9 9 12 9 10 11 11 11 11 14 18 20 24 29 32 33 34
59 47 37 32 24 19 16 17 17 21 26 30 37 42 42 41 38 34 31 29 27 25 22 19 17 14 13 17 13 10 12 10 11 12 12 11 15 21 24 26 27 30 34
58 46 38 31 25 20 18 20 24 32 36 37 38 41 45 44 40 36 31 29 27 24 23 22 20 17 18 13 13 11 12 11 11 10 11 12 16 20 22 23 26 29 32
40 41 35 33 25 18 18 27 34 40 42 43 42 42 46 46 42 36 31 29 29 27 27 26 22 20 18 13 12 11 12 10 8 9 11 14 16 22 24 24 24 26 29
43 43 40 32 27 23 28 34 40 47 47 44 43 42 45 45 41 35 33 29 28 28 31 29 27 23 17 11 8 9 9 8 8 8 11 18 18 22 24 25 25 27 29
43 42 38 31 26 32 40 46 48 49 44 46 45 45 45 44 39 37 36 33 33 34 34 32 26 22 18 16 14 7 8 7 7 9 10 13 17 22 24 26 27 31 33
38 38 38 35 38 47 52 52 52 47 47 46 47 47 46 46 45 42 39 40 38 37 34 31 28 25 24 20 14 5 5 6 8 8 9 13 17 20 25 28 32 32 32
35 39 43 48 57 58 55 56 51 49 50 50 49 47 47 47 45 44 44 42 40 36 35 33 31 29 25 20 12 10 5 6 7 9 11 14 17 20 24 29 30 32 32
39 43 56 66 65 57 57 58 55 54 56 53 49 48 50 48 47 47 46 42 40 38 38 35 31 29 25 20 15 11 7 8 9 11 12 15 17 20 24 27 30 31 32
51 58 64 68 70 61 63 64 58 58 56 52 50 50 51 51 50 48 44 40 37 33 30 28 27 25 22 20 15 10 10 11 10 11 13 14 17 21 24 27 30 32 34
66 70 73 73 72 66 64 63 62 60 58 56 54 56 55 54 50 46 46 41 36 37 36 34 30 28 25 20 17 14 15 12 10 11 12 14 17 20 24 27 30 32 33
Wind_Direction_500mb
222 225 224 220 215 215 222 236 253 262 270 278 282 282 282 277 270 267 268 270 273 278 278 264 278 289 283 288 289 289 287 293 293 287 287 290 291 283 279 280 287 279 273
225 222 222 215 210 213 223 239 253 265 273 280 286 285 286 278 274 267 266 274 279 283 281 283 283 287 287 285 286 285 284 286 291 289 293 302 306 281 280 274 270 272 286
227 220 216 214 213 218 228 244 257 264 272 279 281 285 301 296 286 261 276 272 290 289 287 286 283 282 281 282 287 289 288 290 290 291 274 286 271 284 274 261 276 283 285
229 220 208 208 210 218 231 245 251 258 270 270 247 230 216 228 253 261 267 278 287 291 288 289 290 289 290 295 299 302 304 306 304 299 290 269 264 286 253 263 264 286 297
223 209 200 199 204 213 221 226 226 212 189 184 194 213 226 258 262 265 274 283 287 288 289 296 300 298 300 303 304 310 315 316 313 306 297 288 280 268 253 263 262 282 288
193 189 187 190 196 203 208 196 170 161 148 145 148 217 250 262 271 276 281 290 294 295 296 295 296 297 300 302 307 313 319 319 316 314 309 298 282 276 266 262 276 283 270
165 174 180 180 184 188 174 159 155 142 116 93 55 341 310 299 291 290 292 295 296 299 298 297 295 297 300 302 306 311 315 318 318 316 312 307 297 288 283 275 272 277 279
156 163 166 170 172 162 157 156 142 110 82 41 359 328 314 306 301 300 302 304 303 301 300 297 297 299 297 296 301 307 310 314 317 318 317 314 311 307 300 295 298 301 296
154 156 154 160 162 161 160 149 130 105 34 342 319 311 307 304 301 299 297 296 295 294 292 289 288 287 287 290 296 300 305 310 313 315 316 313 313 318 325 332 334 334 314
157 159 156 162 169 170 163 171 196 251 281 292 302 308 308 307 304 300 299 295 293 290 287 285 285 285 285 288 290 293 300 307 312 312 313 314 318 324 329 333 335 334 328
150 147 139 151 166 180 194 214 238 267 279 279 288 296 301 302 301 298 294 293 290 288 286 286 284 282 283 285 291 298 306 308 302 304 307 310 318 323 328 332 333 331 331
132 134 142 159 179 205 230 247 263 272 281 283 281 290 294 295 294 292 292 291 289 286 284 283 283 285 285 285 288 296 301 299 307 308 310 307 314 324 331 335 337 338 340
148 186 213 225 236 247 258 267 271 273 274 276 274 281 286 291 293 288 285 283 283 282 281 279 279 280 283 288 294 302 314 314 307 305 308 315 323 330 337 342 342 343 345
200 217 220 228 241 256 263 267 269 272 273 274 280 281 278 279 281 281 281 282 282 281 282 286 290 290 289 285 276 290 296 290 286 294 311 321 328 336 340 342 345 343 347
246 224 231 238 244 252 259 268 272 271 272 272 272 274 275 275 277 277 279 280 279 276 274 272 271 272 271 267 275 287 281 284 289 302 315 325 337 346 348 348 347 346 349
271 274 252 252 263 262 260 260 267 278 277 277 275 271 269 270 271 273 274 274 271 268 267 267 268 274 273 291 299 283 280 287 298 311 334 348 347 341 346 350 349 345 346
270 268 254 256 248 231 250 267 274 289 298 296 287 278 271 268 269 267 266 266 264 263 260 258 259 256 264 294 274 270 278 289 307 329 344 343 348 354 357 351 348 348 347
262 243 242 235 230 242 271 287 299 298 292 288 281 274 267 262 260 258 258 257 255 252 249 246 242 243 270 259 263 272 286 304 314 329 338 352 356 348 1 354 351 349 347
243 237 233 221 228 241 282 303 306 301 294 289 283 271 263 257 254 252 250 247 245 242 237 234 235 250 255 232 255 299 296 300 312 330 338 344 354 349 358 350 346 345 343
238 232 219 223 233 261 289 300 306 298 289 287 282 271 260 252 247 245 244 242 238 234 234 231 240 242 237 246 276 284 277 289 311 324 331 337 349 338 343 343 341 342 343
227 218 221 230 254 283 292 293 282 281 282 277 275 268 256 247 241 237 235 233 229 228 228 235 234 227 231 247 269 265 270 286 301 312 322 324 336 331 333 339 346 349 346
211 220 228 242 272 283 282 279 273 277 273 272 269 261 250 241 234 231 227 224 224 223 226 225 217 218 227 248 261 258 270 291 295 301 311 318 321 324 333 345 346 343 343
229 233 240 263 273 275 275 268 267 269 271 267 263 253 242 235 230 228 224 220 221 220 221 213 214 220 227 235 242 274 287 295 295 301 306 307 321 333 340 340 338 340 340
247 247 264 269 273 274 276 261 260 264 263 261 256 247 238 232 226 223 223 222 219 214 214 216 217 218 221 226 233 257 290 292 286 284 298 317 326 333 334 334 335 336 338
270 272 273 272 276 277 269 252 259 260 258 256 249 240 234 228 224 226 226 219 214 214 216 219 221 222 224 228 229 246 267 268 266 291 307 317 326 330 330 331 334 336 339
277 274 273 274 274 270 259 253 259 256 254 250 244 237 231 227 226 221 211 205 203 205 210 207 213 216 221 234 246 249 241 237 270 294 302 311 320 326 328 330 331 331 332
Wind_Speed_850mb
45 46 40 35 33 31 27 25 27 29 30 30 33 37 37 37 35 34 34 32 29 26 26 26 33 36 35 34 36 36 39 37 38 38 38 34 37 32 27 21 22 16 16
42 51 44 38 34 30 27 26 27 27 27 27 27 24 24 23 20 16 14 12 10 14 20 27 28 32 32 31 35 38 36 35 36 32 34 15 11 12 6 11 13 14 19
50 51 50 40 33 29 25 23 21 20 19 17 15 14 12 7 2 2 5 12 16 15 21 22 26 28 32 39 42 36 33 30 29 27 18 11 6 7 9 12 14 17 18
52 53 50 42 34 27 21 18 16 12 9 6 5 4 2 3 5 10 14 17 18 20 25 35 38 38 31 23 21 20 19 19 19 21 19 20 27 10 7 14 15 15 20
47 54 47 40 32 23 18 14 9 5 5 4 5 6 6 6 11 15 18 22 25 27 30 31 26 23 20 18 17 17 17 18 20 19 20 22 26 27 23 17 23 20 21
31 46 43 34 24 19 15 9 8 8 7 5 3 2 5 9 12 16 19 20 22 24 24 23 21 20 18 18 17 17 17 19 20 22 21 19 19 21 21 26 28 20 18
32 38 35 30 25 19 14 13 12 9 7 5 3 3 6 8 12 16 19 21 21 21 21 20 20 19 18 18 16 16 17 19 21 22 21 19 18 17 17 15 16 15 15
30 30 28 25 21 20 20 19 15 11 8 6 6 7 10 12 15 19 21 21 22 22 22 22 21 19 17 16 17 19 20 20 20 19 18 17 15 13 12 10 10 12 12
27 25 19 18 20 23 24 18 13 7 5 7 10 12 15 17 19 21 23 24 24 24 24 23 21 19 18 18 19 19 19 18 17 16 15 15 14 15 15 15 14 14 9
22 22 14 15 21 23 16 12 9 6 9 13 16 19 21 23 24 24 25 26 27 26 25 24 22 20 20 20 19 17 16 15 14 14 14 15 16 17 19 20 20 17 15
20 17 14 15 17 18 15 13 13 14 20 23 22 24 26 27 28 28 29 28 28 27 26 24 23 22 21 20 18 16 14 13 12 10 11 13 14 16 18 21 23 22 20
19 14 11 11 11 12 14 17 21 24 26 28 28 29 30 30 30 30 30 30 28 27 26 24 23 22 21 18 16 13 11 11 10 11 13 14 15 16 18 20 21 23 25
9 8 11 11 14 17 21 25 30 33 35 34 34 34 34 33 34 32 31 29 28 27 26 25 24 22 19 16 13 10 10 11 13 14 14 16 18 19 20 22 23 24 27
14 18 19 18 18 20 23 27 31 35 36 36 37 40 39 37 35 34 31 29 28 27 25 22 19 17 15 13 9 10 11 13 11 11 12 14 17 19 21 23 25 27 29
13 19 20 23 22 21 22 24 25 28 32 37 41 43 42 39 37 35 32 29 26 23 21 19 18 15 12 9 7 13 11 10 11 10 11 13 15 21 25 26 28 31 35
33 24 25 25 23 22 20 17 17 21 27 34 40 42 43 40 37 34 31 28 26 25 23 20 16 12 9 9 12 9 10 11 11 11 11 14 18 20 24 29 32 33 34
59 47 37 32 24 19 16 17 17 21 26 30 37 42 42 41 38 34 31 29 27 25 22 19 17 14 13 17 13 10 12 10 11 12 12 11 15 21 24 26 27 30 34
58 46 38 31 25 20 18 20 24 32 36 37 38 41 45 44 40 36 31 29 27 24 23 22 20 17 18 13 13 11 12 11 11 10 11 12 16 20 22 23 26 29 32
40 41 35 33 25 18 18 27 34 40 42 43 42 42 46 46 42 36 31 29 29 27 27 26 22 20 18 13 12 11 12 10 8 9 11 14 16 22 24 24 24 26 29
43 43 40 32 27 23 28 34 40 47 47 44 43 42 45 45 41 35 33 29 28 28 31 29 27 23 17 11 8 9 9 8 8 8 11 18 18 22 24 25 25 27 29
43 42 38 31 26 32 40 46 48 49 44 46 45 45 45 44 39 37 36 33 33 34 34 32 26 22 18 16 14 7 8 7 7 9 10 13 17 22 24 26 27 31 33
38 38 38 35 38 47 52 52 52 47 47 46 47 47 46 46 45 42 39 40 38 37 34 31 28 25 24 20 14 5 5 6 8 8 9 13 17 20 25 28 32 32 32
35 39 43 48 57 58 55 56 51 49 50 50 49 47 47 47 45 44 44 42 40 36 35 33 31 29 25 20 12 10 5 6 7 9 11 14 17 20 24 29 30 32 32
39 43 56 66 65 57 57 58 55 54 56 53 49 48 50 48 47 47 46 42 40 38 38 35 31 29 25 20 15 11 7 8 9 11 12 15 17 20 24 27 30 31 32
51 58 64 68 70 61 63 64 58 58 56 52 50 50 51 51 50 48 44 40 37 33 30 28 27 25 22 20 15 10 10 11 10 11 13 14 17 21 24 27 30 32 34
66 70 73 73 72 66 64 63 62 60 58 56 54 56 55 54 50 46 46 41 36 37 36 34 30 28 25 20 17 14 15 12 10 11 12 14 17 20 24 27 30 32 33
Wind_Direction_850mb
222 225 224 220 215 215 222 236 253 262 270 278 282 282 282 277 270 267 268 270 273 278 278 264 278 289 283 288 289 289 287 293 293 287 287 290 291 283 279 280 287 279 273
225 222 222 215 210 213 223 239 253 265 273 280 286 285 286 278 274 267 266 274 279 283 281 283 283 287 287 285 286 285 284 286 291 289 293 302 306 281 280 274 270 272 286
227 220 216 214 213 218 228 244 257 264 272 279 281 285 301 296 286 261 276 272 290 289 287 286 283 282 281 282 287 289 288 290 290 291 274 286 271 284 274 261 276 283 285
229 220 208 208 210 218 231 245 251 258 270 270 247 230 216 228 253 261 267 278 287 291 288 289 290 289 290 295 299 302 304 306 304 299 290 269 264 286 253 263 264 286 297
223 209 200 199 204 213 221 226 226 212 189 184 194 213 226 258 262 265 274 283 287 288 289 296 300 298 300 303 304 310 315 316 313 306 297 288 280 268 253 263 262 282 288
193 189 187 190 196 203 208 196 170 161 148 145 148 217 250 262 271 276 281 290 294 295 296 295 296 297 300 302 307 313 319 319 316 314 309 298 282 276 266 262 276 283 270
165 174 180 180 184 188 174 159 155 142 116 93 55 341 310 299 291 290 292 295 296 299 298 297 295 297 300 302 306 311 315 318 318 316 312 307 297 288 283 275 272 277 279
156 163 166 170 172 162 157 156 142 110 82 41 359 328 314 306 301 300 302 304 303 301 300 297 297 299 297 296 301 307 310 314 317 318 317 314 311 307 300 295 298 301 296
154 156 154 160 162 161 160 149 130 105 34 342 319 311 307 304 301 299 297 296 295 294 292 289 288 287 287 290 296 300 305 310 313 315 316 313 313 318 325 332 334 334 314
157 159 156 162 169 170 163 171 196 251 281 292 302 308 308 307 304 300 299 295 293 290 287 285 285 285 285 288 290 293 300 307 312 312 313 314 318 324 329 333 335 334 328
150 147 139 151 166 180 194 214 238 267 279 279 288 296 301 302 301 298 294 293 290 288 286 286 284 282 283 285 291 298 306 308 302 304 307 310 318 323 328 332 333 331 331
132 134 142 159 179 205 230 247 263 272 281 283 281 290 294 295 294 292 292 291 289 286 284 283 283 285 285 285 288 296 301 299 307 308 310 307 314 324 331 335 337 338 340
148 186 213 225 236 247 258 267 271 273 274 276 274 281 286 291 293 288 285 283 283 282 281 279 279 280 283 288 294 302 314 314 307 305 308 315 323 330 337 342 342 343 345
200 217 220 228 241 256 263 267 269 272 273 274 280 281 278 279 281 281 281 282 282 281 282 286 290 290 289 285 276 290 296 290 286 294 311 321 328 336 340 342 345 343 347
246 224 231 238 244 252 259 268 272 271 272 272 272 274 275 275 277 277 279 280 279 276 274 272 271 272 271 267 275 287 281 284 289 302 315 325 337 346 348 348 347 346 349
271 274 252 252 263 262 260 260 267 278 277 277 275 271 269 270 271 273 274 274 271 268 267 267 268 274 273 291 299 283 280 287 298 311 334 348 347 341 346 350 349 345 346
270 268 254 256 248 231 250 267 274 289 298 296 287 278 271 268 269 267 266 266 264 263 260 258 259 256 264 294 274 270 278 289 307 329 344 343 348 354 357 351 348 348 347
262 243 242 235 230 242 271 287 299 298 292 288 281 274 267 262 260 258 258 257 255 252 249 246 242 243 270 259 263 272 286 304 314 329 338 352 356 348 1 354 351 349 347
243 237 233 221 228 241 282 303 306 301 294 289 283 271 263 257 254 252 250 247 245 242 237 234 235 250 255 232 255 299 296 300 312 330 338 344 354 349 358 350 346 345 343
238 232 219 223 233 261 289 300 306 298 289 287 282 271 260 252 247 245 244 242 238 234 234 231 240 242 237 246 276 284 277 289 311 324 331 337 349 338 343 343 341 342 343
227 218 221 230 254 283 292 293 282 281 282 277 275 268 256 247 241 237 235 233 229 228 228 235 234 227 231 247 269 265 270 286 301 312 322 324 336 331 333 339 346 349 346
211 220 228 242 272 283 282 279 273 277 273 272 269 261 250 241 234 231 227 224 224 223 226 225 217 218 227 248 261 258 270 291 295 301 311 318 321 324 333 345 346 343 343
229 233 240 263 273 275 275 268 267 269 271 267 263 253 242 235 230 228 224 220 221 220 221 213 214 220 227 235 242 274 287 295 295 301 306 307 321 333 340 340 338 340 340
247 247 264 269 273 274 276 261 260 264 263 261 256 247 238 232 226 223 223 222 219 214 214 216 217 218 221 226 233 257 290 292 286 284 298 317 326 333 334 334 335 336 338
270 272 273 272 276 277 269 252 259 260 258 256 249 240 234 228 224 226 226 219 214 214 216 219 221 222 224 228 229 246 267 268 266 291 307 317 326 330 330 331 334 336 339
277 274 273 274 274 270 259 253 259 256 254 250 244 237 231 227 226 221 211 205 203 205 210 207 213 216 221 234 246 249 241 237 270 294 302 311 320 326 328 330 331 331 332